Time,TemperatureF,DewpointF,PressureIn,WindDirection,WindDirectionDegrees,WindSpeedMPH,WindSpeedGustMPH,Humidity,HourlyPrecipIn,Conditions,Clouds,dailyrainin,SoftwareType,DateUTC
2013-05-04 00:00:00,48.0,38.7,27.48,ESE,116,7.6,14.3,69,0.00,--,--,0.00,awk and wget,2013-05-04 04:00:00,
2013-05-04 00:05:00,48.2,38.7,27.48,SE,124,6.5,14.3,69,0.00,--,--,0.00,awk and wget,2013-05-04 04:05:00,
2013-05-04 00:10:00,47.4,38.7,27.48,ESE,102,4.0,14.3,71,0.00,--,--,0.00,awk and wget,2013-05-04 04:10:00,
2013-05-04 00:15:00,46.9,38.7,27.48,ESE,106,9.2,12.5,72,0.00,--,--,0.00,awk and wget,2013-05-04 04:15:00,
2013-05-04 00:20:00,47.0,38.7,27.48,NNW,331,6.4,11.5,72,0.00,--,--,0.00,awk and wget,2013-05-04 04:20:00,
2013-05-04 00:30:00,46.9,37.7,27.48,NNE,24,12.3,12.3,70,0.00,--,--,0.00,awk and wget,2013-05-04 04:30:00,
2013-05-04 00:35:00,46.8,37.5,27.48,NNW,335,7.6,12.7,69,0.00,--,--,0.00,awk and wget,2013-05-04 04:35:00,
2013-05-04 00:40:00,46.8,37.2,27.48,East,96,13.6,13.6,69,0.00,--,--,0.00,awk and wget,2013-05-04 04:40:00,
2013-05-04 00:50:00,46.5,36.7,27.48,NE,48,4.5,16.3,68,0.00,--,--,0.00,awk and wget,2013-05-04 04:50:00,
2013-05-04 00:55:00,46.1,36.9,27.48,East,92,5.5,16.3,70,0.00,--,--,0.00,awk and wget,2013-05-04 04:55:00,
2013-05-04 01:00:00,45.7,37.0,27.48,NNW,332,1.2,13.4,71,0.00,--,--,0.00,awk and wget,2013-05-04 05:00:00,
2013-05-04 01:10:00,46.0,35.4,27.48,SE,125,2.7,16.4,66,0.00,--,--,0.00,awk and wget,2013-05-04 05:10:00,
2013-05-04 01:15:00,45.5,35.8,27.47,ESE,102,10.3,16.4,68,0.00,--,--,0.00,awk and wget,2013-05-04 05:15:00,
2013-05-04 01:20:00,45.7,34.6,27.47,East,92,12.3,16.4,64,0.00,--,--,0.00,awk and wget,2013-05-04 05:20:00,
2013-05-04 01:30:00,44.8,34.9,27.47,East,98,6.5,14.8,68,0.00,--,--,0.00,awk and wget,2013-05-04 05:30:00,
2013-05-04 01:40:00,43.9,35.0,27.47,ESE,118,2.3,14.8,70,0.00,--,--,0.00,awk and wget,2013-05-04 05:40:00,
2013-05-04 01:50:00,42.1,35.0,27.46,ENE,78,0.5,7.4,75,0.00,--,--,0.00,awk and wget,2013-05-04 05:50:00,
2013-05-04 02:00:00,41.7,34.4,27.45,NNW,332,2.3,7.3,75,0.00,--,--,0.00,awk and wget,2013-05-04 06:00:00,
2013-05-04 02:10:00,40.8,34.5,27.45,NE,55,8.1,14.4,78,0.00,--,--,0.00,awk and wget,2013-05-04 06:10:00,
2013-05-04 02:15:00,41.0,33.6,27.45,NNW,337,5.5,15.1,74,0.00,--,--,0.00,awk and wget,2013-05-04 06:15:00,
2013-05-04 02:20:00,44.0,31.6,27.45,ESE,104,12.2,15.1,61,0.00,--,--,0.00,awk and wget,2013-05-04 06:20:00,
2013-05-04 02:30:00,44.1,31.3,27.45,SSE,152,6.2,12.3,60,0.00,--,--,0.00,awk and wget,2013-05-04 06:30:00,
2013-05-04 02:40:00,43.2,31.8,27.44,ESE,121,9.9,15.9,63,0.00,--,--,0.00,awk and wget,2013-05-04 06:40:00,
2013-05-04 02:50:00,43.1,31.9,27.44,ESE,122,6.5,17.3,64,0.00,--,--,0.00,awk and wget,2013-05-04 06:50:00,
2013-05-04 03:00:00,42.7,31.2,27.43,ESE,106,6.7,17.3,63,0.00,--,--,0.00,awk and wget,2013-05-04 07:00:00,
2013-05-04 03:10:00,41.7,31.9,27.43,ENE,66,4.1,13.9,67,0.00,--,--,0.00,awk and wget,2013-05-04 07:10:00,
2013-05-04 03:15:00,40.3,32.8,27.43,NNW,339,5.0,15.3,74,0.00,--,--,0.00,awk and wget,2013-05-04 07:15:00,
2013-05-04 03:20:00,40.1,32.7,27.43,North,3,3.5,15.3,74,0.00,--,--,0.00,awk and wget,2013-05-04 07:20:00,
2013-05-04 03:30:00,40.9,31.7,27.43,NNW,337,2.4,11.3,69,0.00,--,--,0.00,awk and wget,2013-05-04 07:30:00,
2013-05-04 03:40:00,40.2,31.9,27.43,NE,56,2.9,8.9,71,0.00,--,--,0.00,awk and wget,2013-05-04 07:40:00,
2013-05-04 03:45:00,40.0,31.3,27.43,NNE,12,6.8,9.7,70,0.00,--,--,0.00,awk and wget,2013-05-04 07:45:00,
2013-05-04 03:50:00,40.3,30.4,27.43,NNW,347,2.1,10.5,67,0.00,--,--,0.00,awk and wget,2013-05-04 07:50:00,
2013-05-04 04:00:00,39.7,30.6,27.43,NE,48,2.4,12.4,69,0.00,--,--,0.00,awk and wget,2013-05-04 08:00:00,
2013-05-04 04:10:00,39.5,31.8,27.43,NNW,338,1.9,8.0,73,0.00,--,--,0.00,awk and wget,2013-05-04 08:10:00,
2013-05-04 04:15:00,38.9,31.5,27.43,ENE,78,3.6,8.0,74,0.00,--,--,0.00,awk and wget,2013-05-04 08:15:00,
2013-05-04 04:20:00,38.0,31.8,27.43,NNW,337,1.2,8.0,78,0.00,--,--,0.00,awk and wget,2013-05-04 08:20:00,
2013-05-04 04:25:00,37.8,32.0,27.43,ESE,122,1.4,7.6,79,0.00,--,--,0.00,awk and wget,2013-05-04 08:25:00,
2013-05-04 04:30:00,38.5,32.2,27.43,ENE,78,3.2,7.6,77,0.00,--,--,0.00,awk and wget,2013-05-04 08:30:00,
2013-05-04 04:40:00,39.5,32.1,27.43,East,92,3.1,6.7,74,0.00,--,--,0.00,awk and wget,2013-05-04 08:40:00,
2013-05-04 04:45:00,39.0,31.8,27.43,ESE,107,1.0,6.7,75,0.00,--,--,0.00,awk and wget,2013-05-04 08:45:00,
2013-05-04 04:50:00,37.4,31.8,27.43,NNW,338,1.0,7.0,79,0.00,--,--,0.00,awk and wget,2013-05-04 08:50:00,
2013-05-04 05:00:00,36.9,30.9,27.43,NNW,333,2.1,7.0,78,0.00,--,--,0.00,awk and wget,2013-05-04 09:00:00,
2013-05-04 05:10:00,37.8,30.5,27.43,NNW,336,1.0,5.7,74,0.00,--,--,0.00,awk and wget,2013-05-04 09:10:00,
2013-05-04 05:15:00,37.7,30.0,27.43,NNW,332,1.9,5.7,73,0.00,--,--,0.00,awk and wget,2013-05-04 09:15:00,
2013-05-04 05:20:00,36.9,29.9,27.43,NNW,333,0.8,4.6,75,0.00,--,--,0.00,awk and wget,2013-05-04 09:20:00,
2013-05-04 05:25:00,36.2,29.1,27.43,NNW,333,1.0,5.5,75,0.00,--,--,0.00,awk and wget,2013-05-04 09:25:00,
2013-05-04 05:30:00,35.9,29.5,27.43,NNW,337,1.7,5.5,77,0.00,--,--,0.00,awk and wget,2013-05-04 09:30:00,
2013-05-04 05:40:00,36.0,29.7,27.43,SE,137,2.1,6.2,77,0.00,--,--,0.00,awk and wget,2013-05-04 09:40:00,
2013-05-04 05:50:00,35.0,29.3,27.43,NNW,338,1.0,5.8,79,0.00,--,--,0.00,awk and wget,2013-05-04 09:50:00,
2013-05-04 06:00:00,33.8,29.0,27.43,North,349,2.0,4.3,82,0.00,--,--,0.00,awk and wget,2013-05-04 10:00:00,
2013-05-04 06:10:00,33.0,29.1,27.43,NNW,340,1.5,4.7,85,0.00,--,--,0.00,awk and wget,2013-05-04 10:10:00,
2013-05-04 06:15:00,32.8,29.1,27.43,NNW,337,1.5,5.7,86,0.00,--,--,0.00,awk and wget,2013-05-04 10:15:00,
2013-05-04 06:20:00,32.6,29.0,27.43,NNW,336,0.0,5.7,86,0.00,--,--,0.00,awk and wget,2013-05-04 10:20:00,
2013-05-04 06:30:00,33.0,29.4,27.43,NNW,343,0.9,4.8,86,0.00,--,--,0.00,awk and wget,2013-05-04 10:30:00,
2013-05-04 06:40:00,32.8,29.5,27.43,NNW,343,0.9,3.9,87,0.00,--,--,0.00,awk and wget,2013-05-04 10:40:00,
2013-05-04 06:50:00,32.7,29.4,27.43,NNW,340,1.1,3.9,87,0.00,--,--,0.00,awk and wget,2013-05-04 10:50:00,
2013-05-04 07:00:00,33.1,29.8,27.43,NNW,348,0.9,4.5,87,0.00,--,--,0.00,awk and wget,2013-05-04 11:00:00,
2013-05-04 07:10:00,33.5,30.1,27.43,East,93,1.2,5.6,87,0.00,--,--,0.00,awk and wget,2013-05-04 11:10:00,
2013-05-04 07:15:00,33.6,30.2,27.44,ESE,117,1.7,5.6,87,0.00,--,--,0.00,awk and wget,2013-05-04 11:15:00,
2013-05-04 07:20:00,33.9,30.2,27.44,East,88,0.9,5.6,86,0.00,--,--,0.00,awk and wget,2013-05-04 11:20:00,
2013-05-04 07:30:00,34.5,30.9,27.44,SE,137,1.0,4.6,86,0.00,--,--,0.00,awk and wget,2013-05-04 11:30:00,
2013-05-04 07:40:00,35.5,31.6,27.44,NNW,339,2.6,5.4,85,0.00,--,--,0.00,awk and wget,2013-05-04 11:40:00,
2013-05-04 07:51:00,36.6,32.2,27.44,ENE,66,1.5,6.6,83,0.00,--,--,0.00,awk and wget,2013-05-04 11:51:00,
2013-05-04 08:01:00,38.1,33.2,27.44,ENE,69,1.5,5.8,82,0.00,--,--,0.00,awk and wget,2013-05-04 12:01:00,
2013-05-04 08:10:00,39.4,32.4,27.44,ENE,70,0.9,5.2,75,0.00,--,--,0.00,awk and wget,2013-05-04 12:10:00,
2013-05-04 08:15:00,40.0,33.1,27.44,East,83,0.5,4.6,76,0.00,--,--,0.00,awk and wget,2013-05-04 12:15:00,
2013-05-04 08:20:00,40.0,32.9,27.44,East,83,0.0,4.4,75,0.00,--,--,0.00,awk and wget,2013-05-04 12:20:00,
2013-05-04 08:26:00,40.4,32.5,27.44,East,83,1.5,4.4,72,0.00,--,--,0.00,awk and wget,2013-05-04 12:26:00,
2013-05-04 08:35:00,41.3,32.3,27.44,SE,141,0.9,4.4,70,0.00,--,--,0.00,awk and wget,2013-05-04 12:35:00,
2013-05-04 08:40:00,41.9,32.3,27.44,NNW,336,0.6,4.4,68,0.00,--,--,0.00,awk and wget,2013-05-04 12:40:00,
2013-05-04 08:45:00,42.5,32.6,27.44,NNW,334,1.3,4.4,67,0.00,--,--,0.00,awk and wget,2013-05-04 12:45:00,
2013-05-04 08:50:00,43.1,32.6,27.44,North,349,1.5,5.4,66,0.00,--,--,0.00,awk and wget,2013-05-04 12:50:00,
2013-05-04 09:00:00,45.2,34.6,27.44,NNE,30,1.8,5.4,66,0.00,--,--,0.00,awk and wget,2013-05-04 13:00:00,
2013-05-04 09:10:00,47.8,32.9,27.44,NNE,22,4.0,8.0,56,0.00,--,--,0.00,awk and wget,2013-05-04 13:10:00,
2013-05-04 09:20:00,48.8,33.5,27.43,ENE,76,2.0,8.4,55,0.00,--,--,0.00,awk and wget,2013-05-04 13:20:00,
2013-05-04 09:30:00,51.1,35.0,27.43,NNW,334,0.9,22.9,53,0.00,--,--,0.00,awk and wget,2013-05-04 13:30:00,
2013-05-04 09:40:00,52.5,35.3,27.43,NNW,336,0.0,8.2,51,0.00,--,--,0.00,awk and wget,2013-05-04 13:40:00,
2013-05-04 09:50:00,53.4,35.5,27.42,NNW,339,3.9,9.9,50,0.00,--,--,0.00,awk and wget,2013-05-04 13:50:00,
2013-05-04 10:00:00,54.7,36.7,27.42,NNW,330,8.9,18.4,50,0.00,--,--,0.00,awk and wget,2013-05-04 14:00:00,
2013-05-04 10:05:00,55.2,36.1,27.42,SSE,155,7.6,18.4,48,0.00,--,--,0.00,awk and wget,2013-05-04 14:05:00,
2013-05-04 10:10:00,55.6,37.5,27.42,NNW,335,3.9,19.1,50,0.00,--,--,0.00,awk and wget,2013-05-04 14:10:00,
2013-05-04 10:15:00,55.4,35.9,27.42,North,0,4.5,19.1,47,0.00,--,--,0.00,awk and wget,2013-05-04 14:15:00,
2013-05-04 10:20:00,56.0,35.2,27.42,SE,135,8.4,22.6,45,0.00,--,--,0.00,awk and wget,2013-05-04 14:20:00,
2013-05-04 10:30:00,55.8,33.8,27.42,SE,141,6.6,22.6,43,0.00,--,--,0.00,awk and wget,2013-05-04 14:30:00,
2013-05-04 10:40:00,56.1,31.7,27.42,North,2,6.8,17.9,39,0.00,--,--,0.00,awk and wget,2013-05-04 14:40:00,
2013-05-04 10:50:00,56.4,32.9,27.42,SE,136,5.9,17.3,40,0.00,--,--,0.00,awk and wget,2013-05-04 14:50:00,
2013-05-04 11:00:00,57.2,31.8,27.42,SE,144,3.3,15.4,37,0.00,--,--,0.00,awk and wget,2013-05-04 15:00:00,
2013-05-04 11:10:00,58.1,30.7,27.42,NNE,12,5.9,16.0,35,0.00,--,--,0.00,awk and wget,2013-05-04 15:10:00,
2013-05-04 11:15:00,58.5,30.5,27.42,NNE,29,9.3,16.0,34,0.00,--,--,0.00,awk and wget,2013-05-04 15:15:00,
2013-05-04 11:20:00,57.7,30.8,27.42,ENE,65,6.8,16.0,35,0.00,--,--,0.00,awk and wget,2013-05-04 15:20:00,
2013-05-04 11:30:00,57.1,31.1,27.42,East,101,8.8,14.9,37,0.00,--,--,0.00,awk and wget,2013-05-04 15:30:00,
2013-05-04 11:40:00,58.4,31.6,27.42,NNW,331,1.9,13.3,36,0.00,--,--,0.00,awk and wget,2013-05-04 15:40:00,
2013-05-04 11:50:00,60.8,29.7,27.41,NNW,329,2.9,13.7,30,0.00,--,--,0.00,awk and wget,2013-05-04 15:50:00,
2013-05-04 12:00:00,60.0,26.5,27.41,ENE,62,7.7,17.5,27,0.00,--,--,0.00,awk and wget,2013-05-04 16:00:00,
2013-05-04 12:10:00,60.7,28.0,27.41,ENE,65,14.8,16.7,28,0.00,--,--,0.00,awk and wget,2013-05-04 16:10:00,
2013-05-04 12:15:00,61.5,29.3,27.41,ENE,70,8.4,22.1,29,0.00,--,--,0.00,awk and wget,2013-05-04 16:15:00,
2013-05-04 12:20:00,59.7,27.4,27.41,East,89,8.6,22.1,28,0.00,--,--,0.00,awk and wget,2013-05-04 16:20:00,
2013-05-04 12:30:00,60.0,22.4,27.41,East,101,11.2,20.2,23,0.00,--,--,0.00,awk and wget,2013-05-04 16:30:00,
2013-05-04 12:40:00,60.0,23.0,27.41,SE,140,4.9,22.5,23,0.00,--,--,0.00,awk and wget,2013-05-04 16:40:00,
2013-05-04 12:50:00,60.7,21.8,27.41,NNW,334,15.7,22.5,22,0.00,--,--,0.00,awk and wget,2013-05-04 16:50:00,
2013-05-04 13:00:00,62.1,23.1,27.40,East,98,12.9,22.8,22,0.00,--,--,0.00,awk and wget,2013-05-04 17:00:00,
2013-05-04 13:10:00,63.0,20.7,27.40,ESE,102,16.2,22.8,19,0.00,--,--,0.00,awk and wget,2013-05-04 17:10:00,
2013-05-04 13:20:00,63.1,21.3,27.40,East,95,11.8,19.3,19,0.00,--,--,0.00,awk and wget,2013-05-04 17:20:00,
2013-05-04 13:30:00,62.0,17.6,27.40,ESE,111,16.2,18.5,17,0.00,--,--,0.00,awk and wget,2013-05-04 17:30:00,
2013-05-04 13:40:00,60.6,15.3,27.40,East,99,16.0,19.7,16,0.00,--,--,0.00,awk and wget,2013-05-04 17:40:00,
2013-05-04 13:45:00,60.6,15.0,27.40,ESE,105,22.1,22.1,16,0.00,--,--,0.00,awk and wget,2013-05-04 17:45:00,
2013-05-04 13:50:00,60.2,16.6,27.40,ESE,118,21.6,21.7,17,0.00,--,--,0.00,awk and wget,2013-05-04 17:50:00,
2013-05-04 14:00:00,60.7,19.2,27.40,ESE,102,25.5,25.5,19,0.00,--,--,0.00,awk and wget,2013-05-04 18:00:00,
2013-05-04 14:10:00,61.8,24.6,27.40,ESE,122,14.6,25.4,23,0.00,--,--,0.00,awk and wget,2013-05-04 18:10:00,
2013-05-04 14:15:00,61.4,25.3,27.40,ESE,110,19.9,25.4,24,0.00,--,--,0.00,awk and wget,2013-05-04 18:15:00,
2013-05-04 14:20:00,61.1,25.4,27.40,East,99,20.4,25.4,25,0.00,--,--,0.00,awk and wget,2013-05-04 18:20:00,
2013-05-04 14:30:00,62.3,28.1,27.39,ESE,105,23.8,23.8,27,0.00,--,--,0.00,awk and wget,2013-05-04 18:30:00,
2013-05-04 14:40:00,60.7,30.2,27.40,ESE,109,20.9,25.5,31,0.00,--,--,0.00,awk and wget,2013-05-04 18:40:00,
2013-05-04 14:50:00,60.7,31.2,27.39,ESE,106,10.8,19.5,32,0.00,--,--,0.00,awk and wget,2013-05-04 18:50:00,
2013-05-04 15:00:00,60.4,32.2,27.39,ESE,120,10.8,20.4,34,0.00,--,--,0.00,awk and wget,2013-05-04 19:00:00,
2013-05-04 15:10:00,59.5,32.7,27.39,SE,126,14.1,20.4,36,0.00,--,--,0.00,awk and wget,2013-05-04 19:10:00,
2013-05-04 15:15:00,59.6,32.6,27.39,SE,133,5.0,18.1,35,0.00,--,--,0.00,awk and wget,2013-05-04 19:15:00,
2013-05-04 15:20:00,59.7,33.7,27.39,ESE,116,10.7,18.1,37,0.00,--,--,0.00,awk and wget,2013-05-04 19:20:00,
2013-05-04 15:30:00,60.1,35.0,27.39,ESE,117,9.6,17.6,38,0.00,--,--,0.00,awk and wget,2013-05-04 19:30:00,
2013-05-04 15:40:00,59.7,35.1,27.39,SE,125,6.1,18.9,39,0.00,--,--,0.00,awk and wget,2013-05-04 19:40:00,
2013-05-04 15:45:00,59.4,36.0,27.39,ESE,110,11.0,28.5,41,0.00,--,--,0.00,awk and wget,2013-05-04 19:45:00,
2013-05-04 15:50:00,58.9,35.4,27.39,East,92,12.9,28.5,41,0.00,--,--,0.00,awk and wget,2013-05-04 19:50:00,
2013-05-04 16:00:00,58.4,35.2,27.39,ESE,108,15.6,17.8,41,0.00,--,--,0.00,awk and wget,2013-05-04 20:00:00,
2013-05-04 16:10:00,58.8,35.9,27.39,ESE,113,9.7,20.0,42,0.00,--,--,0.00,awk and wget,2013-05-04 20:10:00,
2013-05-04 16:15:00,58.8,36.1,27.39,ESE,112,13.5,20.0,42,0.00,--,--,0.00,awk and wget,2013-05-04 20:15:00,
2013-05-04 16:20:00,58.9,36.0,27.39,ESE,102,15.3,20.0,42,0.00,--,--,0.00,awk and wget,2013-05-04 20:20:00,
2013-05-04 16:30:00,59.6,36.7,27.38,ESE,104,13.6,18.5,42,0.00,--,--,0.00,awk and wget,2013-05-04 20:30:00,
2013-05-04 16:35:00,59.4,37.6,27.38,ENE,78,4.6,19.1,44,0.00,--,--,0.00,awk and wget,2013-05-04 20:35:00,
2013-05-04 16:40:00,59.1,37.1,27.38,East,98,21.5,21.5,43,0.00,--,--,0.00,awk and wget,2013-05-04 20:40:00,
2013-05-04 16:50:00,59.2,38.0,27.38,ESE,103,14.6,20.5,45,0.00,--,--,0.00,awk and wget,2013-05-04 20:50:00,
2013-05-04 17:00:00,59.2,38.0,27.37,East,94,12.7,32.1,45,0.00,--,--,0.00,awk and wget,2013-05-04 21:00:00,
2013-05-04 17:10:00,58.9,39.1,27.37,SE,138,9.3,24.2,47,0.00,--,--,0.00,awk and wget,2013-05-04 21:10:00,
2013-05-04 17:20:00,60.0,38.8,27.37,ESE,108,9.4,16.1,45,0.00,--,--,0.00,awk and wget,2013-05-04 21:20:00,
2013-05-04 17:30:00,60.0,38.7,27.37,ESE,110,12.1,19.4,45,0.00,--,--,0.00,awk and wget,2013-05-04 21:30:00,
2013-05-04 17:35:00,58.9,38.5,27.37,ESE,107,18.1,22.0,46,0.00,--,--,0.00,awk and wget,2013-05-04 21:35:00,
2013-05-04 17:40:00,58.4,38.9,27.37,ESE,111,22.1,22.1,48,0.00,--,--,0.00,awk and wget,2013-05-04 21:40:00,
2013-05-04 17:50:00,58.5,39.1,27.37,ESE,102,9.6,23.3,48,0.00,--,--,0.00,awk and wget,2013-05-04 21:50:00,
2013-05-04 18:00:00,58.3,38.5,27.37,ESE,105,20.5,21.4,47,0.00,--,--,0.00,awk and wget,2013-05-04 22:00:00,
2013-05-04 18:10:00,57.5,39.2,27.38,ESE,110,12.3,28.8,50,0.00,--,--,0.00,awk and wget,2013-05-04 22:10:00,
2013-05-04 18:20:00,57.7,40.4,27.38,East,90,10.6,26.7,52,0.00,--,--,0.00,awk and wget,2013-05-04 22:20:00,
2013-05-04 18:30:00,58.1,40.3,27.38,SE,128,18.5,18.5,51,0.00,--,--,0.00,awk and wget,2013-05-04 22:30:00,
2013-05-04 18:40:00,57.0,39.7,27.38,SE,124,18.2,30.0,52,0.00,--,--,0.00,awk and wget,2013-05-04 22:40:00,
2013-05-04 18:50:00,56.5,39.8,27.38,ESE,110,14.7,30.0,53,0.00,--,--,0.00,awk and wget,2013-05-04 22:50:00,
2013-05-04 19:00:00,56.0,38.7,27.38,ESE,119,13.9,22.3,52,0.00,--,--,0.00,awk and wget,2013-05-04 23:00:00,
2013-05-04 19:10:00,55.6,39.5,27.38,ESE,105,11.5,22.2,54,0.00,--,--,0.00,awk and wget,2013-05-04 23:10:00,
2013-05-04 19:20:00,55.2,39.4,27.39,ESE,109,8.0,17.4,55,0.00,--,--,0.00,awk and wget,2013-05-04 23:20:00,
2013-05-04 19:30:00,54.9,39.4,27.39,NE,56,5.1,20.7,55,0.00,--,--,0.00,awk and wget,2013-05-04 23:30:00,
2013-05-04 19:40:00,54.7,39.8,27.39,East,95,2.0,18.7,57,0.00,--,--,0.00,awk and wget,2013-05-04 23:40:00,
2013-05-04 19:50:00,54.5,40.4,27.39,East,99,7.9,17.6,58,0.00,--,--,0.00,awk and wget,2013-05-04 23:50:00,
2013-05-04 20:00:00,54.2,40.2,27.40,ESE,123,6.2,17.8,58,0.00,--,--,0.00,awk and wget,2013-05-05 00:00:00,
2013-05-04 20:10:00,53.8,40.3,27.40,SE,140,4.3,14.8,59,0.00,--,--,0.00,awk and wget,2013-05-05 00:10:00,
2013-05-04 20:15:00,53.8,40.2,27.40,SE,126,3.3,14.6,59,0.00,--,--,0.00,awk and wget,2013-05-05 00:15:00,
2013-05-04 20:20:00,53.6,40.3,27.40,SE,124,5.2,14.1,60,0.00,--,--,0.00,awk and wget,2013-05-05 00:20:00,
2013-05-04 20:30:00,53.4,40.6,27.40,ESE,106,7.1,14.1,61,0.00,--,--,0.00,awk and wget,2013-05-05 00:30:00,
2013-05-04 20:40:00,53.4,40.7,27.40,ESE,108,13.4,16.6,62,0.00,--,--,0.00,awk and wget,2013-05-05 00:40:00,
2013-05-04 20:45:00,53.4,40.7,27.40,ESE,121,10.5,16.6,61,0.00,--,--,0.00,awk and wget,2013-05-05 00:45:00,
2013-05-04 20:50:00,53.3,40.9,27.40,ESE,118,11.0,16.6,62,0.00,--,--,0.00,awk and wget,2013-05-05 00:50:00,
2013-05-04 21:00:00,53.3,40.3,27.40,East,97,11.7,13.5,61,0.00,--,--,0.00,awk and wget,2013-05-05 01:00:00,
2013-05-04 21:10:00,53.0,40.4,27.40,ESE,113,7.1,12.7,62,0.00,--,--,0.00,awk and wget,2013-05-05 01:10:00,
2013-05-04 21:15:00,52.8,40.1,27.40,SE,127,4.2,16.0,62,0.00,--,--,0.00,awk and wget,2013-05-05 01:15:00,
2013-05-04 21:20:00,52.7,40.2,27.41,ESE,108,12.7,16.4,62,0.00,--,--,0.00,awk and wget,2013-05-05 01:20:00,
2013-05-04 21:30:00,52.8,39.5,27.41,ESE,120,11.2,16.4,60,0.00,--,--,0.00,awk and wget,2013-05-05 01:30:00,
2013-05-04 21:40:00,52.6,39.4,27.41,East,100,11.3,18.9,60,0.00,--,--,0.00,awk and wget,2013-05-05 01:40:00,
2013-05-04 21:50:00,52.6,39.5,27.41,ESE,115,5.1,15.0,61,0.00,--,--,0.00,awk and wget,2013-05-05 01:50:00,
2013-05-04 22:00:00,52.3,39.8,27.42,ESE,114,13.0,28.7,62,0.00,--,--,0.00,awk and wget,2013-05-05 02:00:00,
2013-05-04 22:10:00,51.9,40.0,27.42,ESE,107,15.8,28.7,63,0.00,--,--,0.00,awk and wget,2013-05-05 02:10:00,
2013-05-04 22:20:00,51.3,39.9,27.42,ESE,122,10.3,17.0,64,0.00,--,--,0.00,awk and wget,2013-05-05 02:20:00,
2013-05-04 22:30:00,51.1,39.1,27.42,ESE,102,17.4,23.8,63,0.00,--,--,0.00,awk and wget,2013-05-05 02:30:00,
2013-05-04 22:40:00,51.1,38.7,27.42,ESE,108,13.8,19.1,62,0.00,--,--,0.00,awk and wget,2013-05-05 02:40:00,
2013-05-04 22:45:00,50.9,38.8,27.42,ESE,117,20.5,20.5,63,0.00,--,--,0.00,awk and wget,2013-05-05 02:45:00,
2013-05-04 22:50:00,50.5,38.6,27.42,ESE,112,15.2,18.7,63,0.00,--,--,0.00,awk and wget,2013-05-05 02:50:00,
2013-05-04 23:00:00,50.5,38.7,27.42,SE,129,17.0,17.0,63,0.00,--,--,0.00,awk and wget,2013-05-05 03:00:00,
2013-05-04 23:10:00,50.5,38.8,27.42,ESE,116,15.8,18.4,64,0.00,--,--,0.00,awk and wget,2013-05-05 03:10:00,
2013-05-04 23:15:00,50.3,38.9,27.42,East,86,13.9,18.4,64,0.00,--,--,0.00,awk and wget,2013-05-05 03:15:00,
2013-05-04 23:20:00,50.1,38.9,27.42,ESE,113,7.8,18.4,65,0.00,--,--,0.00,awk and wget,2013-05-05 03:20:00,
2013-05-04 23:30:00,50.0,38.9,27.41,ESE,113,19.7,19.7,65,0.00,--,--,0.00,awk and wget,2013-05-05 03:30:00,
2013-05-04 23:40:00,49.9,39.1,27.41,ESE,116,8.2,15.5,66,0.00,--,--,0.00,awk and wget,2013-05-05 03:40:00,
2013-05-04 23:45:00,50.1,38.5,27.41,ESE,117,10.4,15.5,64,0.00,--,--,0.00,awk and wget,2013-05-05 03:45:00,
2013-05-04 23:50:00,49.8,38.2,27.41,East,94,9.6,14.9,64,0.00,--,--,0.00,awk and wget,2013-05-05 03:50:00,